User: anonymous   Login
Location: Ostrava
(49.8330°N, 18.2830°E)
Time: 22:19:49
(UTC+02:00)
Language:

Iridium 7 - Orbit

View from above orbital plane
View from above orbital plane
View from above satellite
View from above satellite

Ground track
Ground track

The orbit data is extracted from the following two-line orbital elements,

1 24793U 97020B   17114.71779712 +.00000173 +00000-0 +54714-4 0  9994
2 24793 086.3970 341.3370 0002115 085.5565 274.5872 14.34222108045308
Epoch (UTC): 24 April 2017 17:13:37
Eccentricity: 0.0002115
inclination: 86.3970°
perigee height: 776 km
apogee height: 779 km
right ascension of ascending node: 341.3370°
argument of perigee: 85.5565°
revolutions per day: 14.34222108
mean anomaly at epoch: 274.5872°
orbit number at epoch: 4530

The dashed part of the orbit path shows where the satellite is in the earth's shadow,  

DLR